Location: Hurstbourne Priors
(51.2000°N, 1.3667°W)
Time: 19:40:57
(UTC+00:00)

Transit 4A - Pass Details

Date: 20 April 2021
Orbit: 870 x 974 km, 66.8° (Epoch: 09 May)

Event Time Altitude Azimuth Distance (km) Brightness Sun altitude
Rises 23:15:54 0° 199° (SSW) 3,625 - -26.1°
Reaches altitude 10° 23:18:30 10° 196° (SSW) 2,670 - -26.2°
Maximum altitude 23:24:34 56° 120° (ESE) 1,102 - -26.4°
Exits shadow 23:24:42 56° 114° (ESE) 1,103 8.0 -26.4°
Drops below altitude 10° 23:30:29 10° 43° (NE) 2,616 10.7 -26.5°
Sets 23:33:01 0° 40° (NE) 3,546 11.5 -26.6°
